Regional Weather Roundup
Issued by NWS

Home | Current Version | Previous Version | Text Only | Print | Product List | Glossary On
Versions: 1 2 3 4 5 6 7 8 9 10 11 12 13 14 15 16 17 18 19 20 21 22 23 24 25 26 27 28 29 30 31 32 33 34 35 36 37 38 39 40 41 42 43 44 45 46 47 48 49 50
730
ASUS44 KLIX 221605
RWRLA
LOUISIANA WEATHER ROUNDUP
NATIONAL WEATHER SERVICE NEW ORLEANS LA
1000 AM CST SAT NOV 22 2014

NOTE: "FAIR" INDICATES FEW OR NO CLOUDS BELOW 12,000 FEET WITH NO
      SIGNIFICANT WEATHER AND/OR OBSTRUCTIONS TO VISIBILITY.
      SKY/WX - SKY CONDITION AND SIGNIFICANT WEATHER.
      TMP - AIR TEMPERATURE.    DP   - DEWPOINT TEMPERATURE.
      RH  - RELATIVE HUMIDITY.  PRES - PRESSURE.
      HX  - HEAT INDEX.         WCI  - WIND CHILL INDEX.

*  THESE STATIONS ARE NOT NWS OR FAA STATIONS AND ARE NOT UNDER
   NWS QUALITY CONTROL.

LAZ040-048-061>063-065-066-069-221700-
SOUTHEAST LOUISIANA

CITY           SKY/WX    TMP DP  RH WIND       PRES   REMARKS
N.O. AUDUBON   NOT AVBL
N.O. INTL ARPT MOSUNNY   67  56  67 E16G23    30.21R
N.O. LAKEFRONT MOSUNNY   66  56  70 E17       30.21F
N.O. DOWNTOWN* FAIR      64  54  68 E8        30.22S
SLIDELL        MOSUNNY   69  55  60 E10G17    30.22S
BATON ROUGE    CLOUDY    64  53  67 E12       30.21S
BOOTHVILLE     MOSUNNY   67  63  87 E9        30.21S
BELLE CHASSE   PTSUNNY   68  58  70 E13       30.21S
BOGALUSA*        N/A     66  51  58 E9        30.26S
NEW ROADS*     CLOUDY    62  53  72 E10G18    30.20S
GONZALES*      CLOUDY    63  56  76 E5        30.21R
HAMMOND*       PTSUNNY   66  52  59 E6        30.23F
HOUMA*         PTSUNNY   66  61  82 E12       30.19S
PORT FOURCHON* NOT AVBL

$$

LAZ041-044-053-054-221700-
SOUTHWEST LOUISIANA

CITY           SKY/WX    TMP DP  RH WIND       PRES   REMARKS
LAKE CHARLES   CLOUDY    63  56  78 E13       30.13F
LAFAYETTE      CLOUDY    63  54  72 VRB7      30.17S
PATTERSON      CLOUDY    63  57  82 E8        30.21R
SALT POINT       N/A     66  58  75 E6        30.16R
NEW IBERIA     CLOUDY    65  56  72 E10       30.18S
CHENAULT AIRPK PTSUNNY   63  55  77 E8        30.15S

$$

LAZ027-028-221700-
CENTRAL LOUISIANA

CITY           SKY/WX    TMP DP  RH WIND       PRES   REMARKS
FORT POLK      PTSUNNY   62  55  75 SE13      30.14F
ALEXANDRIA INT PTSUNNY   64  53  67 SE12      30.16S
ALEXANDRIA     PTSUNNY   64  52  64 SE12G18   30.18S

$$

LAZ001-002-221700-
NORTHWEST LOUISIANA

CITY           SKY/WX    TMP DP  RH WIND       PRES   REMARKS
SHREVEPORT     MOSUNNY   64  55  72 SE12      30.14S
BARKSDALE AFB  MOSUNNY   63  54  72 S16       30.15S
DTN SHREVEPORT PTSUNNY   62  52  69 SE10      30.15S

$$

LAZ014-016-221700-
NORTHEAST LOUISIANA

CITY           SKY/WX    TMP DP  RH WIND       PRES   REMARKS
MONROE         MOSUNNY   64  50  60 S10       30.20F
TALLULAH       SUNNY     64  47  53 SE15      30.22F

$$




USA.gov is the U.S. government's official web portal to all federal, state and local government web resources and services.